Location: Battersea Observatory
(44.4318°N, 76.3841°W)
Time: 06:49:07
(UTC-05:00)

Vanguard 2 - Visible Passes

Search period start: 19 January 2022 00:00
Search period end: 29 January 2022 00:00
Orbit: 553 x 2936 km, 32.9° (Epoch: 19 January)

Date Brightness Start Highest point End Pass type
(mag) Time Alt. Az. Time Alt. Az. Time Alt. Az.
19 Jan 11.8 00:58:02 12° ESE 00:58:02 12° ESE 00:58:48 10° ESE visible
19 Jan 10.9 02:59:25 36° SSE 02:59:25 36° SSE 03:08:29 10° SE visible
19 Jan 11.0 05:00:49 23° SW 05:03:14 24° SW 05:14:04 10° S visible
19 Jan 10.7 20:30:00 10° SSW 20:33:40 21° S 20:33:40 21° S visible
20 Jan 11.7 01:14:41 14° ESE 01:14:41 14° ESE 01:16:15 10° ESE visible
20 Jan 10.9 03:16:05 33° S 03:16:05 33° S 03:25:18 10° SE visible
20 Jan 11.2 05:17:28 17° WSW 05:20:08 18° SW 05:29:09 10° S visible
20 Jan 10.6 20:46:30 10° SSW 20:50:23 23° S 20:50:23 23° S visible
21 Jan 11.6 01:31:22 16° SE 01:31:22 16° SE 01:33:35 10° ESE visible
21 Jan 11.0 03:32:46 30° S 03:32:46 30° S 03:41:50 10° SSE visible
21 Jan 11.4 05:34:09 12° WSW 05:36:59 12° SW 05:42:29 10° SSW visible
21 Jan 10.7 19:00:30 10° SSE 19:05:13 14° SE 19:05:42 14° SE visible
21 Jan 10.5 21:03:18 10° SW 21:07:06 25° SSW 21:07:06 25° SSW visible
22 Jan 11.6 01:48:04 17° SE 01:48:04 17° SE 01:50:45 10° SE visible
22 Jan 11.1 03:49:28 26° SSW 03:49:28 26° SSW 03:57:59 10° SSE visible
22 Jan 10.4 19:15:50 10° S 19:22:01 20° SE 19:22:23 20° SE visible
22 Jan 10.6 21:20:18 10° SW 21:23:47 25° SSW 21:23:47 25° SSW visible
23 Jan 11.6 02:04:47 17° SE 02:04:47 17° SE 02:07:43 10° SE visible
23 Jan 11.2 04:06:11 21° SSW 04:06:11 21° SSW 04:13:34 10° S visible
23 Jan 10.2 19:31:58 10° SSW 19:38:55 25° SE 19:39:03 25° SE visible
23 Jan 10.7 21:37:27 10° SW 21:40:27 23° SW 21:40:27 23° SW visible
24 Jan 11.6 02:21:31 17° SSE 02:21:31 17° SSE 02:24:25 10° SSE visible
24 Jan 11.4 04:22:55 16° SSW 04:22:55 16° SSW 04:28:15 10° SSW visible
24 Jan 10.0 19:48:31 10° SSW 19:55:41 30° SSE 19:55:41 30° SSE visible
24 Jan 10.8 21:54:43 10° WSW 21:57:05 20° SW 21:57:05 20° SW visible
25 Jan 11.6 02:38:14 15° SSE 02:38:14 15° SSE 02:40:47 10° SSE visible
25 Jan 11.6 04:39:38 10° SW 04:39:38 10° SW 04:40:30 10° SSW visible
25 Jan 10.5 18:03:27 10° SSE 18:05:53 11° SE 18:08:36 10° ESE visible
25 Jan 9.9 20:05:21 10° SW 20:12:18 35° SSE 20:12:18 35° SSE visible
25 Jan 10.9 22:12:05 10° WSW 22:13:41 17° WSW 22:13:41 17° WSW visible
26 Jan 11.6 02:54:57 13° S 02:54:57 13° S 02:56:41 10° SSE visible
26 Jan 10.3 18:18:18 10° S 18:22:43 16° SE 18:27:30 11° ESE visible
26 Jan 9.8 20:22:23 10° SW 20:28:53 38° S 20:28:53 38° S visible
26 Jan 11.1 22:29:31 10° WSW 22:30:16 13° WSW 22:30:16 13° WSW visible
27 Jan 11.7 03:11:39 10° S 03:11:39 10° S 03:11:55 10° S visible
27 Jan 10.0 18:34:23 10° S 18:39:39 21° SE 18:44:05 16° ESE visible
27 Jan 9.8 20:39:33 10° SW 20:45:27 39° SSW 20:45:27 39° SSW visible
28 Jan 9.8 18:50:57 10° SSW 18:56:42 26° SSE 19:00:38 20° ESE visible
28 Jan 9.9 20:56:50 10° WSW 21:02:00 37° SSW 21:02:00 37° SSW visible
